STARLINK-1623, 46129

Orbit data source: Space-Track

STARLINK-1623, 46129 is a payload satellite owned by SpaceX/Seattle (US) in LEO that was launched on Tue, 18 Aug 2020 UTC via an FALCON 9 launch vehicle from the Air Force Eastern Test Range (AFETR). Payloads include a variety of satellites, spacecraft, and rockets equipped with specific instruments for various scientific and technological missions. These include communications satellites like Starlink; space stations such as the ISS; scientific satellites like the Hubble; Earth observation satellites from companies like Planet Labs, Umbra, and HawkEye 360; GPS; miniature CubeSats for education and research; and military/defense satellites.

Loading next visibility...
STARLINK-1623 details
Identifier
46129, 2020-057N
Orbit
LEO
Last TLE update11 hours ago
Origin
Flag of USSpaceX/Seattle (US)
ManufacturerSpaceX/Seattle
MissionOperational Commercial Communications
Bus & MotorSTARLINK, Unknown motor
Mass260 kg wet, ~248 kg dry
Launch date (UTC)
2020-08-18 (4 years ago)
Launch vehicle
FALCON 9
Launch site
Air Force Eastern Test Range (AFETR)
Object type
Payload
Rocket body
Debris
Shape & HBRBox + 1 Pan, 8.86 m
Radar Cross Section13.562 m², Large (>1 m²)

Expand to show TLE details & history

TLE from 11 hours ago
0 STARLINK-1623
1 46129U 20057N   24361.49746270  .00012160  00000-0  83352-3 0  9995
2 46129  53.0552  83.7448 0001950  84.5223 275.5989 15.06414118240582
Epoch: 2024-12-26T11:56Z
Definitive object data (Epoch: 2024-12-26T11:56:20.777Z)
Latitude0.00004°
Longitude169.18225°
Altitude547.916 km
Speed7.589 km/s
True Right ascension05h 34m 58s
True Declination0° 00' 00"
Sunlit
Object was in full shadow at TLE epoch
Visualization TLE readout
Latitude20.53521°
Longitude-176.65487°
Altitude546.954 km
Speed7.592 km/s
Apparent Right ascension08h 14m 41s
Apparent Declination-9° 32' 36"
Sunlit
Object is in full shadow
Visualization observer readout
Local Sidereal Time22:35:15
Azimuth55.491° ENE
Elevation-46.458°
Doppler factor1
Orbital elements
Apogee altitude548.789 km
Perigee altitude546.088 km
Semi-major axis6,925.576 km
Eccentricity0.000195
Inclination53.0552°
RAAN83.7448°
Arg. of periapsis84.5223°
True anomaly275.57666°
Mean anomaly275.5989°
Eccentric anomaly275.58778°
Mean motion3.76582 °/min
BSTAR0.00083352
Orbital period95.6 mins
Loading maneuver chart data...
Loading historical data...
Loading historical data...
Loading historical data...
Loading historical data...
Loading historical data...
Loading historical data...
Loading historical data...

STARLINK-1623 Visibility forecast

Observer location: undefined°, undefined

Span
Click to sort rows by Start time (UTC) header in descending order
Start Az.
Max El. time (UTC)
Max El. Az.
Max El.
End time (UTC)
End Az.
5 mins2024-12-27 07:11:58.700Z166.02° S2024-12-27 07:13:58.700Z132.532° SE18.102°2024-12-27 07:16:58.700Z83.431° E
6 mins2024-12-27 08:50:58.700Z250.14° W2024-12-27 08:52:58.700Z294.005° NW39.383°2024-12-27 08:56:58.700Z42.75° NE
4 mins2024-12-27 10:31:58.700Z314.807° NW2024-12-27 10:33:58.700Z350.134° N16.481°2024-12-27 10:35:58.700Z21.494° NNE
5 mins2024-12-27 13:52:58.700Z341.169° N2024-12-27 13:54:58.700Z21.8° NNE23.931°2024-12-27 13:57:58.700Z78.927° E
6 mins2024-12-27 15:31:58.700Z299.156° NW2024-12-27 15:34:58.700Z217.457° SW40.37°2024-12-27 15:37:58.700Z147.996° SSE
|